#timestamp,LO_Frequency,Hit,StdDev 
1516456815.7,286047000.2,N
1516456835.5,286047001.0,N
1516456855.4,286047002.8,N
1516456875.2,286047000.6,N
1516456895.0,286047000.3,N
1516456895.9,286047000.3,N
1516456915.8,286047000.5,N
1516456935.6,286046999.9,N
1516456955.4,286047000.4,N
1516456975.3,286047000.0,N
1516456995.1,286047002.3,N
1516457015.9,286047002.5,N
1516457035.7,286047002.6,N
1516457055.5,286047002.4,N
1516457075.4,286047001.4,N
1516457095.2,286047000.6,N
1516457115.0,286047001.0,N
1516457115.9,286047001.0,N
1516457135.8,286047000.6,N
1516457155.6,286046999.9,N
1516457175.5,286047000.9,N
1516457195.3,286047002.7,N
1516457215.1,286046999.9,N
1516457235.9,286047000.3,N
1516457255.7,286046998.5,N
1516457275.5,286047000.7,N
1516457295.4,286046998.2,N
1516457315.2,286047000.3,N
1516457335.1,286046998.4,N
1516457336.0,286046998.4,N
1516457355.8,286047000.6,N
1516457375.6,286047000.6,N
1516457395.5,286046998.2,N
1516457415.3,286047001.9,N
1516457435.2,286047002.4,N
1516457455.9,286047000.0,N
1516457475.7,286047000.4,N
1516457495.6,286047002.3,N
1516457515.4,286047000.2,N
1516457535.2,286046999.8,N
1516457555.1,286047002.6,N
1516457556.0,286047002.6,N
1516457575.8,286047001.5,N
1516457595.7,286047002.8,N
1516457615.5,286047002.6,N
1516457635.3,286047001.7,N
1516457655.2,286047002.5,N
1516457675.0,286047004.4,Y
1516457675.9,286047004.4,P
1516457695.8,286047000.2,N
1516457715.6,286047000.5,N
1516457735.4,286047000.7,N
1516457755.3,286047000.4,N
1516457775.1,286047000.2,N
1516457795.9,286047000.3,N
1516457815.7,286046999.9,N
1516457835.5,286047000.4,N
1516457855.4,286047002.8,N
1516457875.2,286047001.2,N
1516457895.0,286047000.7,N
1516457896.0,286047000.7,N
1516457915.8,286047000.8,N
1516457935.6,286047001.0,N
1516457955.5,286047000.3,N
1516457975.3,286047000.2,N
1516457995.1,286046999.8,N
1516458015.9,286046999.9,N
1516458035.7,286047002.1,N
1516458055.6,286047001.9,N
1516458075.4,286047000.3,N
1516458095.2,286046999.8,N
1516458115.1,286047002.3,N
1516458116.0,286047002.3,N
1516458135.8,286047001.4,N
1516458155.7,286047004.0,Y
1516458175.5,286047000.6,P
1516458195.3,286047001.0,P
1516458215.2,286047000.9,P
1516458235.0,286047000.6,Y
1516458235.9,286047000.6,P
1516458255.8,286047000.7,P
1516458275.6,286047002.4,P
1516458295.4,286047002.4,Y
1516458315.3,286046998.3,P
1516458335.1,286046999.1,N
1516458355.9,286046997.1,N
1516458375.7,286046996.7,N
1516458395.5,286046997.8,N
1516458415.4,286046995.4,Y
1516458435.2,286046996.5,P
1516458455.1,286046995.0,P
1516458456.0,286046995.0,P
1516458475.8,286046999.1,N
1516458495.6,286047000.8,N
1516458515.5,286046999.3,N
1516458535.3,286046999.1,N
1516458555.2,286046999.5,N
1516458575.9,286046999.0,N
1516458595.7,286046998.1,N
1516458615.6,286046999.0,N
1516458635.4,286046999.3,N
1516458655.2,286046999.0,N
1516458675.1,286046998.4,N
1516458676.0,286046998.4,N
1516458695.8,286046999.6,N
1516458715.7,286046998.8,N
1516458735.5,286047000.7,N
1516458755.3,286047000.4,N
1516458775.2,286046998.2,N
1516458795.0,286046998.3,N
1516458795.9,286046998.3,N
1516458815.8,286046998.8,N
1516458835.6,286047000.8,N
1516458855.4,286046998.5,N
1516458875.3,286046998.2,N
1516458895.1,286047001.0,N
1516458915.9,286046998.5,N
1516458935.7,286046996.8,N
1516458955.5,286046996.6,N
1516458975.4,286046997.8,N
1516458995.2,286046997.3,N
1516459015.0,286046999.4,N
1516459016.0,286046999.4,N
1516459035.8,286046996.6,Y
1516459055.6,286046996.6,P
1516459075.5,286047000.8,N
1516459095.3,286047000.3,N
1516459115.2,286046997.0,N
1516459135.9,286046996.5,N
1516459155.7,286046996.9,N
1516459175.6,286046996.7,N
1516459195.4,286046999.1,N
1516459215.2,286046998.3,N
1516459235.1,286047001.0,N
1516459236.0,286047001.0,N
1516459255.8,286047000.6,N
1516459275.7,286047001.1,N
1516459295.5,286046998.5,N
1516459315.3,286047001.0,N
1516459335.2,286047000.6,N
1516459355.0,286047001.2,N
1516459355.9,286047001.2,N
1516459375.8,286046998.2,N
1516459395.6,286046998.2,N
1516459415.4,286046998.9,N
1516459435.3,286046998.6,N
1516459455.1,286047000.8,N
1516459475.8,286047000.5,N
1516459495.7,286046999.4,N
1516459515.5,286046999.1,N
1516459535.4,286047001.1,N
1516459555.2,286046999.0,N
1516459575.0,286046999.6,N
1516459575.9,286046999.6,N
1516459595.8,286046999.3,N
1516459615.6,286047000.8,N
1516459635.4,286047002.8,N
1516459655.3,286047000.4,N
1516459675.1,286047001.0,N
1516459695.9,286047000.9,N
1516459715.7,286047001.1,N
1516459735.5,286047000.7,N
1516459755.4,286047000.6,N
1516459775.2,286046998.3,N
1516459795.0,286046999.0,N
1516459796.0,286046999.0,N
1516459815.8,286046999.4,N
1516459835.6,286047001.2,N
1516459855.5,286047000.5,N
1516459875.3,286047000.5,N
1516459895.1,286047001.1,N
1516459915.9,286046998.1,N
1516459935.7,286046999.2,N
1516459955.5,286046999.3,N
1516459975.4,286046998.7,N
1516459995.2,286046998.1,N
1516460015.1,286046996.7,Y
1516460016.0,286046996.7,P
1516460035.8,286046998.3,N
1516460055.6,286046999.2,N
1516460075.5,286046996.9,N
1516460095.3,286046997.3,N
1516460115.2,286046996.9,N
1516460135.9,286046997.1,N
1516460155.7,286046996.6,N
1516460175.6,286046996.5,Y
1516460195.4,286047000.1,P
1516460215.2,286047002.5,N
1516460235.1,286046999.7,N
1516460236.0,286046999.7,N
1516460255.8,286047002.3,N
1516460275.7,286046998.1,N
1516460295.5,286047001.2,N
1516460315.3,286046998.7,N
1516460335.2,286047000.6,N
1516460355.0,286047000.6,N
1516460355.9,286047000.6,N
1516460375.7,286047002.3,N
1516460395.6,286047001.1,N
